• In Uzbekistan
  • List of Countries
  • For 7 days
  • Water Temperature
  • Satellite Maps
  • Weather Map
  • Weather Widgets
  • user-avatar
    Login

    Hourly Weather Kovylka

    Today, 18 November, Sunday

    Time Temperature Precipitation Wind Pressure Humidity
    00:00 -4°C° 0 mm 3 mps 754 mmHg 28%
    01:00 -4°C° 0 mm 4 mps 754 mmHg 28%
    02:00 -4°C° 0 mm 4 mps 753 mmHg 28%
    03:00 -4°C° 0 mm 3 mps 752 mmHg 29%
    04:00 -4°C° 0 mm 4 mps 752 mmHg 29%
    05:00 -4°C° 0 mm 4 mps 751 mmHg 29%
    06:00 -4°C° 0 mm 4 mps 751 mmHg 28%
    07:00 -4°C° 0 mm 4 mps 751 mmHg 27%
    08:00 -4°C° 0 mm 4 mps 750 mmHg 27%
    09:00 -4°C° 0 mm 4 mps 750 mmHg 26%
    10:00 -3°C° 0 mm 4 mps 750 mmHg 26%
    11:00 -2°C° 0 mm 4 mps 750 mmHg 25%
    12:00 -1°C° 0 mm 4 mps 750 mmHg 24%
    13:00 0°C° 0 mm 3 mps 750 mmHg 26%
    14:00 0°C° 0 mm 3 mps 750 mmHg 28%
    15:00 -1°C° 0 mm 3 mps 750 mmHg 29%
    16:00 -1°C° 0 mm 3 mps 750 mmHg 31%
    17:00 -2°C° 0 mm 3 mps 750 mmHg 34%
    18:00 -4°C° 0 mm 3 mps 751 mmHg 36%
    19:00 -3°C° 0 mm 2 mps 751 mmHg 37%
    20:00 -3°C° 0 mm 2 mps 751 mmHg 38%
    21:00 -3°C° 0 mm 2 mps 751 mmHg 38%
    22:00 -3°C° 0 mm 2 mps 751 mmHg 40%
    23:00 -3°C° 0 mm 2 mps 751 mmHg 41%

    Tomorrow, 19 November, Monday

    Time Temperature Precipitation Wind Pressure Humidity
    00:00 -3°C° 0 mm 2 mps 751 mmHg 42%
    01:00 -3°C° 0 mm 2 mps 751 mmHg 44%
    02:00 -3°C° 0 mm 2 mps 752 mmHg 46%
    03:00 -4°C° 0 mm 2 mps 752 mmHg 48%
    04:00 -2°C° 0 mm 1 mps 752 mmHg 50%
    05:00 -2°C° 0 mm 1 mps 752 mmHg 52%
    06:00 -2°C° 0 mm 1 mps 752 mmHg 54%
    07:00 -2°C° 0 mm 1 mps 753 mmHg 56%
    08:00 -1°C° 0 mm 1 mps 753 mmHg 57%
    09:00 -1°C° 0 mm 1 mps 753 mmHg 59%
    10:00 -1°C° 0 mm 1 mps 753 mmHg 59%
    11:00 0°C° 0 mm 1 mps 754 mmHg 60%
    12:00 0°C° 0 mm 0 mps 754 mmHg 60%
    13:00 0°C° 0 mm 0 mps 754 mmHg 63%
    14:00 +1°C° 0 mm 1 mps 754 mmHg 65%
    15:00 +1°C° 0 mm 1 mps 754 mmHg 68%
    16:00 0°C° 0 mm 1 mps 754 mmHg 72%
    17:00 0°C° 0 mm 1 mps 754 mmHg 77%
    18:00 -3°C° 0 mm 2 mps 754 mmHg 81%
    19:00 -3°C° 0 mm 2 mps 754 mmHg 83%
    20:00 -3°C° 0 mm 2 mps 754 mmHg 85%
    21:00 -3°C° 0 mm 2 mps 754 mmHg 86%
    22:00 -3°C° 0 mm 2 mps 754 mmHg 87%
    23:00 -3°C° 0 mm 2 mps 754 mmHg 88%

    Day after tomorrow, 20 November, Tuesday

    Time Temperature Precipitation Wind Pressure Humidity
    00:00 -3°C° 0 mm 2 mps 754 mmHg 89%
    01:00 -3°C° 0 mm 2 mps 754 mmHg 90%
    02:00 -2°C° 0 mm 2 mps 754 mmHg 90%
    03:00 -2°C° 0 mm 2 mps 754 mmHg 91%
    04:00 -3°C° 0 mm 2 mps 754 mmHg 92%
    05:00 -3°C° 0 mm 2 mps 753 mmHg 92%
    06:00 -3°C° 0 mm 2 mps 753 mmHg 93%
    07:00 -3°C° 0 mm 2 mps 753 mmHg 94%
    08:00 -3°C° 0 mm 2 mps 753 mmHg 94%
    09:00 -2°C° 0 mm 2 mps 753 mmHg 94%
    10:00 -2°C° 0 mm 2 mps 753 mmHg 90%
    11:00 -1°C° 0 mm 2 mps 753 mmHg 86%
    12:00 0°C° 0 mm 3 mps 753 mmHg 82%
    13:00 +1°C° 0 mm 2 mps 752 mmHg 82%
    14:00 -1°C° 0 mm 2 mps 752 mmHg 81%
    15:00 -1°C° 0 mm 2 mps 752 mmHg 81%
    16:00 -1°C° 0 mm 2 mps 752 mmHg 83%
    17:00 -1°C° 0 mm 2 mps 752 mmHg 84%
    18:00 -2°C° 0 mm 2 mps 752 mmHg 86%
    19:00 -2°C° 0 mm 2 mps 752 mmHg 86%
    20:00 -2°C° 0 mm 2 mps 752 mmHg 87%
    21:00 -2°C° 0 mm 2 mps 752 mmHg 87%
    22:00 -2°C° 0 mm 2 mps 752 mmHg 88%
    23:00 -3°C° 0 mm 2 mps 751 mmHg 89%

    21 November, Wednesday

    Time Temperature Precipitation Wind Pressure Humidity
    00:00 -3°C° 0 mm 2 mps 751 mmHg 90%
    01:00 -3°C° 0 mm 2 mps 751 mmHg 90%
    02:00 -3°C° 0 mm 2 mps 751 mmHg 91%
    03:00 -3°C° 0 mm 2 mps 752 mmHg 92%
    04:00 -3°C° 0 mm 2 mps 751 mmHg 91%
    05:00 -4°C° 0 mm 2 mps 751 mmHg 91%
    06:00 -4°C° 0 mm 2 mps 751 mmHg 91%
    07:00 -4°C° 0 mm 2 mps 751 mmHg 89%
    08:00 -4°C° 0 mm 2 mps 751 mmHg 88%
    09:00 -4°C° 0 mm 2 mps 751 mmHg 86%
    10:00 -4°C° 0 mm 3 mps 751 mmHg 81%
    11:00 -4°C° 0 mm 3 mps 751 mmHg 76%
    12:00 -2°C° 0 mm 3 mps 750 mmHg 70%
    13:00 -2°C° 0 mm 3 mps 750 mmHg 71%
    14:00 -2°C° 0 mm 3 mps 750 mmHg 71%
    15:00 -3°C° 0 mm 4 mps 750 mmHg 71%
    16:00 -4°C° 0 mm 3 mps 750 mmHg 75%
    17:00 -4°C° 0 mm 3 mps 750 mmHg 78%
    18:00 -4°C° 0 mm 3 mps 750 mmHg 82%
    19:00 -4°C° 0 mm 3 mps 750 mmHg 81%
    20:00 -4°C° 0 mm 4 mps 750 mmHg 80%
    21:00 -4°C° 0 mm 4 mps 750 mmHg 79%
    22:00 -4°C° 0 mm 3 mps 750 mmHg 80%
    23:00 -4°C° 0 mm 3 mps 750 mmHg 80%

    22 November, Thursday

    Time Temperature Precipitation Wind Pressure Humidity
    00:00 -4°C° 0 mm 3 mps 750 mmHg 81%
    01:00 -4°C° 0 mm 3 mps 749 mmHg 81%
    02:00 -4°C° 0 mm 3 mps 749 mmHg 81%
    03:00 -4°C° 0 mm 3 mps 749 mmHg 81%
    04:00 -4°C° 0 mm 3 mps 749 mmHg 79%
    05:00 -4°C° 0 mm 3 mps 749 mmHg 78%
    06:00 -4°C° 0 mm 3 mps 749 mmHg 76%
    07:00 -5°C° 0 mm 4 mps 749 mmHg 76%
    08:00 -5°C° 0 mm 4 mps 748 mmHg 75%
    09:00 -5°C° 0 mm 4 mps 748 mmHg 75%
    10:00 -5°C° 0 mm 5 mps 748 mmHg 73%
    11:00 -5°C° 0 mm 5 mps 747 mmHg 70%
    12:00 -4°C° 0 mm 6 mps 747 mmHg 68%
    13:00 -4°C° 0 mm 6 mps 747 mmHg 68%
    14:00 -4°C° 0 mm 6 mps 747 mmHg 69%
    15:00 -4°C° 0 mm 7 mps 746 mmHg 69%
    16:00 -4°C° 0 mm 7 mps 746 mmHg 71%
    17:00 -6°C° 0 mm 7 mps 746 mmHg 72%
    18:00 -6°C° 0 mm 7 mps 746 mmHg 74%
    19:00 -4°C° 0 mm 6 mps 747 mmHg 75%
    20:00 -4°C° 0 mm 6 mps 747 mmHg 76%
    21:00 -4°C° 0 mm 6 mps 747 mmHg 77%
    22:00 -4°C° 0 mm 5 mps 748 mmHg 77%
    23:00 -4°C° 0 mm 5 mps 748 mmHg 77%

    23 November, Friday

    Time Temperature Precipitation Wind Pressure Humidity
    00:00 -4°C° 0 mm 5 mps 749 mmHg 78%
    01:00 -4°C° 0 mm 4 mps 749 mmHg 77%
    02:00 -4°C° 0 mm 4 mps 750 mmHg 77%
    03:00 -5°C° 0 mm 3 mps 750 mmHg 77%
    04:00 -5°C° 0 mm 3 mps 750 mmHg 75%
    05:00 -6°C° 0 mm 3 mps 751 mmHg 72%
    06:00 -6°C° 0 mm 3 mps 751 mmHg 70%
    07:00 -6°C° 0 mm 3 mps 752 mmHg 68%
    08:00 -6°C° 0 mm 3 mps 752 mmHg 66%
    09:00 -6°C° 0 mm 3 mps 753 mmHg 65%
    10:00 -5°C° 0 mm 3 mps 753 mmHg 63%
    11:00 -4°C° 0 mm 3 mps 753 mmHg 61%
    12:00 -4°C° 0 mm 3 mps 753 mmHg 59%
    13:00 -2°C° 0 mm 3 mps 753 mmHg 64%
    14:00 -2°C° 0 mm 3 mps 753 mmHg 69%
    15:00 -2°C° 0 mm 3 mps 753 mmHg 74%
    16:00 -4°C° 0 mm 3 mps 753 mmHg 78%
    17:00 -4°C° 0 mm 3 mps 753 mmHg 82%
    18:00 -4°C° 0 mm 4 mps 753 mmHg 87%
    19:00 -4°C° 0 mm 4 mps 753 mmHg 87%
    20:00 -4°C° 0 mm 4 mps 752 mmHg 87%
    21:00 -4°C° 0 mm 4 mps 752 mmHg 87%
    22:00 -5°C° 0 mm 5 mps 752 mmHg 87%
    23:00 -5°C° 0 mm 5 mps 752 mmHg 88%
    Show more